Location: Arlington
(31.4185°N, 90.5568°W)
Time: 07:49:02
(UTC+00:00)

BlueWalker 3 - Visible Passes

Search period start: 04 December 2022 00:00
Search period end: 14 December 2022 00:00
Orbit: 501 x 519 km, 53.2° (Epoch: 03 December)

Date Brightness Start Highest point End Pass type
(mag) Time Alt. Az. Time Alt. Az. Time Alt. Az.
10 Dec 4.5 01:08:26 10° NW 01:09:07 14° NNW 01:09:07 14° NNW visible
11 Dec 3.1 00:50:00 10° NW 00:52:21 34° NNW 00:52:21 34° NNW visible
12 Dec 1.8 00:31:34 10° NW 00:35:26 73° NE 00:36:00 60° ESE visible
13 Dec 1.8 00:13:07 10° NW 00:17:01 80° NE 00:20:16 14° SE visible
